CZ-3C DEB, 40195

Orbit data source: Space-Track

CZ-3C DEB, 40195 is space debris in HEO originally from a launch on Fri, 24 Feb 2012 UTC launched from the Xichang Space Center, China (XSC). Debris objects in space refer to the collection of defunct objects orbiting the Earth. Examples of debris include non-operational satellites, rocket bodies, and fragments generated from explosions, collisions, or faulty payload assembly.

Loading next visibility...
Identifier
40195, 2012-008E
Orbit
HEO
Country
Flag of CNCN / PRC
Related business
Manufacturer
CALT
Mission
Spacecraft
Bus & Motor
Unknown
Mass
Unknown
Launch date (UTC)
2012-02-24 (14 years ago)
Launch vehicle
Unknown
Launch site
Xichang Space Center, China (XSC)
Object type
Payload
Rocket body
Debris
Shape & HBR
Unknown shape, 0.2 m
Radar Cross Section
Medium (>0.1 m² and <1 m²)

Expand to show TLE details & history
Last TLE update: 4 days ago

TLE from 4 days ago
0 CZ-3C DEB
1 40195U 12008E   25315.14672906  .00001667  00000-0  51061-2 0  9996
2 40195  20.2462 269.9689 7117638  50.3690 353.3351  2.39462208 11902
Epoch: 2025-11-11T03:31Z
TLE epoch observation values (Epoch: 2025-11-11T03:31:17.390Z)
Latitude
0.00011°
Longitude
166.59433°
Altitude
1,648.022 km
Speed
9.079 km/s
True Right ascension
17h 59m 49s
True Declination
0° 00' 00"
Sunlit
Object was in daylight at epoch
Visualization orbit readout
Latitude
Unknown
Longitude
Unknown
Altitude
Unknown
Speed
Unknown
Apparent Right ascension
Unknown
Apparent Declination
Unknown
Sunlit
N/A
Visualization observer readout
Local Sidereal Time
20:06:28
Azimuth
Unknown
Elevation
Unknown
Doppler factor
Unknown
Orbital elements
Apogee altitude
34,026.938 km
Perigee altitude
425.492 km
Semi-major axis
23,604.352 km
Eccentricity
0.71176
Inclination
20.2462°
RAAN
269.9689°
Arg. of periapsis
50.369°
True anomaly
309.66114°
Mean anomaly
353.3351°
Eccentric anomaly
338.17148°
Mean motion
0.59849 °/min
Orbital period
601.52 mins
BSTAR
0.0051061
Loading maneuver chart data...
Computing Atmospheric mass density...
Loading historical data...
Loading historical data...
Loading historical data...
Loading historical data...
Loading historical data...
Loading historical data...
Loading historical data...

Documentation

Showing up to 5 results
|